www.pogodaiklimat.ru

Погода и климат >> Архив погоды >> Южная Африка >> Фридендал


ПОГОДА в Фридендале

  • Прогноз погоды в Фридендале
  • Монитор погоды в Фридендале

АРХИВ ПОГОДЫ в Фридендале

Время (UTC), дата Ветер
(напр.,м/с)
 
Видим.   Явления Облачность Т
(С)
Тd
(С)
f
(%)
Тe
(С)
Тes
(С)
Комфортность P
(гПа)
Po
(гПа)
Тmin
(С)
Tmax
(С)
R
(мм)
R24
(мм)
S
(см)
03 16.09 В 1 н/о н/о +9.1 +8.0 93 +8 +8 1019.3 1014.2 +9.0 +28.1
06 16.09 штиль 0 20 км 10/10 200 м
[St]
+11.9 +9.8 87 +11 +11 1020.3 1015.2 +9.0
09 16.09 штиль 0 н/о н/о +20.8 +8.9 46 +22 +22 комфорт 1019.6 1014.7 +9.0 +20.9
12 16.09 ЮЗ 2 30 км ясно +28.3 +6.7 25 +27 +43 жарко 1016.9 1012.1 +9.0 +28.3
15 16.09 ЮЗ 4 н/о н/о +25.7 +11.6 41 +27 +27 жарко 1015.8 1011.0 +25.7 +29.3
18 16.09 ЮЗ 3 30 км ясно +18.5 +13.2 71 +19 +19 1016.5 1011.6 +18.5 +29.3
21 16.09 СЗ 1 н/о н/о +16.1 +13.0 82 +17 +17 1017.4 1012.4 +16.1 +29.3
00 17.09 штиль 0 н/о н/о +12.9 +11.6 92 +12 +12 1017.7 1012.7 +12.9 +29.3
03 17.09 штиль 0 н/о н/о +10.7 +9.9 95 +10 +10 1017.5 1012.4 +10.7 +29.3
06 17.09 Ю 1 100 м туман ?/? +11.9 +11.7 99 +12 +12 1018.0 1012.9 +10.7
09 17.09 СЗ 1 н/о н/о +22.3 +14.2 60 +26 +26 жарко 1017.3 1012.4 +10.7 +22.3
12 17.09 ЮЗ 4 30 км ясно +29.5 +13.1 37 +31 +40 жарко 1014.8 1010.1 +10.7 +30.4
15 17.09 ЮЗ 5 н/о н/о +26.6 +14.2 46 +29 +29 жарко 1014.4 1009.6 +26.2 +30.4
18 17.09 ЮВ 1 30 км 4/0 2000 м
[Ac As]
+19.5 +14.1 71 +22 +22 комфорт 1016.4 1011.5 +19.5 +30.4
21 17.09 СЗ 1 н/о н/о +16.5 +14.0 85 +17 +17 1017.8 1012.8 +16.5 +30.4
00 18.09 штиль 0 н/о н/о +13.6 +12.8 95 +13 +13 1019.0 1014.0 +13.6 +30.4
03 18.09 В 2 н/о н/о +13.7 +13.3 97 +13 +13 1017.7 1012.7 +13.2 +30.4
06 18.09 Ю 2 100 м туман ?/? +13.4 +13.2 99 +13 +13 1018.8 1013.8 +13.2
09 18.09 штиль 0 н/о н/о +23.3 +14.4 57 +27 +27 душно 1018.3 1013.4 +13.2 +23.3
12 18.09 ЮВ 3 30 км 10/0
[Cs]
+32.1 +7.4 22 +31 +40 жарко 1014.2 1009.5 +13.2 +32.2
15 18.09 Ю 3 н/о н/о +33.3 +2.6 14 +30 +30 жарко 1012.7 1008.0 +32.1 +33.9
18 18.09 ЮЗ 1 н/о н/о +24.0 +10.8 43 +25 +25 комфорт 1012.5 1007.7 +24.0 +33.9
21 18.09 СЗ 2 н/о н/о +18.2 +12.0 67 +19 +19 1012.0 1007.1 +18.2 +33.9
00 19.09 СЗ 1 н/о н/о +15.7 +11.1 74 +16 +16 1010.9 1005.9 +15.5 +33.9
03 19.09 ЮЗ 1 н/о н/о +15.4 +7.5 59 +16 +16 1009.5 1004.5 +15.0 +33.9
06 19.09 штиль 0 30 км 9/0 2000 м
[]
+19.5 +8.3 48 +20 +21 1010.5 1005.6 +14.9
09 19.09 ЮВ 1 н/о н/о +30.3 +7.2 24 +29 +29 жарко 1010.4 1005.7 +14.9 +30.3
12 19.09 З 4 30 км 9/0 2000 м
[Ac cast]
+26.3 +13.3 45 +28 +34 жарко 1010.9 1006.1 +14.9 +32.9
15 19.09 З 2 н/о н/о +19.1 +11.7 62 +21 +21 комфорт 1013.1 1008.2 +18.9 +32.9
18 19.09 СЗ 3 30 км 9/9 200 м
[St]
+16.0 +13.1 83 +16 +16 1015.0 1010.0 +15.6 +32.9
21 19.09 штиль 0 н/о н/о +16.2 +13.1 82 +16 +16 1016.0 1011.0 +15.6 +32.9
00 20.09 СЗ 2 н/о н/о +16.0 +13.1 83 +16 +16 1016.8 1011.8 +15.6 +32.9
03 20.09 СВ 1 н/о н/о +16.2 +13.1 82 +17 +17 1017.3 1012.3 +15.6 +32.9
06 20.09 В 1 20 км 10/10 200 м
[St]
+17.0 +12.9 77 +18 +18 1018.4 1013.4 +15.6
09 20.09 СЗ 1 н/о н/о +20.1 +14.1 68 +23 +23 комфорт 1018.9 1014.0 +15.6 +20.1
12 20.09 З 2 30 км 9/0 2000 м
[Ac As]
+21.7 +15.1 66 +25 +33 комфорт 1017.0 1012.1 +15.6 +22.1
15 20.09 ЮЗ 2 н/о н/о +20.8 +13.8 64 +24 +24 комфорт 1017.1 1012.2 +18.6 +22.1
18 20.09 ЮЗ 3 20 км 10/10 200 м
[St]
+16.2 +13.3 83 +16 +16 1017.7 1012.7 +16.2 +22.1
21 20.09 З 3 н/о н/о +12.9 +11.6 92 +11 +11 1017.5 1012.5 +12.9 +22.1
00 21.09 СЗ 1 н/о н/о +11.5 +10.8 95 +11 +11 1017.1 1012.0 +11.5 +22.1
03 21.09 З 1 н/о н/о +13.6 +12.6 94 +14 +14 1016.8 1011.8 +11.3 +22.1
06 21.09 З 3 30 км 10/10 600 м
[Sc]
+15.2 +12.5 84 +15 +15 1017.8 1012.8 +11.3
09 21.09 З 3 н/о н/о +18.2 +10.1 59 +19 +19 1018.6 1013.6 +11.3 +18.4
12 21.09 ЮЗ 4 30 км 4/1 600 м
[Cu hum Ci]
+21.4 +9.1 45 +23 +31 комфорт 1016.7 1011.8 +11.3 +21.7
15 21.09 ЮЗ 5 н/о н/о +17.1 +12.4 74 +17 +17 1017.7 1012.7 +16.9 +21.7
18 21.09 З 4 20 км 8/8 200 м
[St]
+15.4 +11.4 77 +15 +15 1019.5 1014.5 +15.4 +21.7
21 21.09 ЮЗ 3 н/о н/о +15.1 +12.8 86 +15 +15 1021.0 1016.0 +14.9 +21.7
00 22.09 ЮЗ 3 н/о н/о +13.7 +11.2 85 +13 +13 1022.1 1017.1 +13.5 +21.7
03 22.09 З 2 н/о н/о +10.1 +9.0 93 +8 +8 1023.0 1017.9 +10.1 +21.7
06 22.09 СЗ 1 30 км 1/0 2000 м
[Ac cast]
+14.6 +10.4 76 +15 +17 1024.6 1019.6 +10.0
09 22.09 Ю 5 н/о н/о +19.6 +7.4 45 +20 +20 1024.9 1019.9 +10.0 +20.0
12 22.09 ЮЗ 7 н/о н/о +21.1 +7.8 42 +22 +22 комфорт 1023.9 1019.0 +10.0 +21.9
15 22.09 ЮЗ 7 н/о н/о +19.3 +7.5 46 +19 +19 1024.6 1019.6 +19.3 +21.9
18 22.09 ЮЗ 4 30 км 1/0
[Ci fib]
+15.5 +5.5 51 +15 +15 1025.7 1020.7 +15.4 +21.9
21 22.09 Ю 3 н/о н/о +14.1 +5.0 54 +13 +13 1027.6 1022.5 +14.1 +21.9

 

Местоположение метеостанции Фридендал (Южная Африка): широта -31.66 долгота 18.50 высота над уровнем моря 33 м.

В архиве по умолчанию представлена погода в Фридендале за последнюю неделю. Архивные данные за месяц целиком и за предыдущие месяцы, начиная с января 2011 года, Вы можете получить, выбрав интересующий диапазон дат из раскрывающегося списка и нажав кнопку "Ввод!".


*Определитесь, кто Вы:
робот инопланетянин человек

Внимание! Время в таблицах - всемирное. Для получения местного времени необходимо прибавить поправку, которая равна 2 ч.

Смотрите также архив погоды в соседних городах и на ближайших метеорологических станциях:

Погода в Ламбертс-Бей (Южная Африка) (44 км)
Погода в Ниеувоудтвилле (Южная Африка) (66 км)
Погода в Клануильяме (Южная Африка) (69 км)
Погода в Кальвинии (Южная Африка) (122 км)
Погода на Мысе Колумбайн (Южная Африка) (144 км)
Погода в Лангебаанвеге (Южная Африка) (148 км)
Погода в Лангебане (Южная Африка) (164 км)
Погода на Станции Excelsior Ceres (Южная Африка) (169 км)
Погода в Гилбеке (Южная Африка) (175 км)
Погода в Портервилле (Южная Африка) (189 км)

Пояснения к столбцам:

Ветер - указаны скорость ветра в м/с - средняя за 10 мин, порывы в срок и между сроками (в фигурных скобках) и направление, откуда дует ветер: С - северный, СВ - северо-восточный, В - восточный, ЮВ - юго-восточный, Ю - южный, ЮЗ - юго-западный, З - западный, СЗ - северо-западный.
Видимость - горизонтальная дальность видимости в метрах или километрах. При видимости от 1 до 10 км при отсутствии осадков обычно наблюдается дымка, при ухудшении видимости до 1 км и менее - туман. В сухую погоду видимость может ухудшаться дымом, пылью или мглою.
Явления - указаны атмосферные явления, наблюдавшиеся в срок или в последний час перед сроком; фигурными скобками обозначены явления, наблюдавшиеся между сроками (за 1-3 часа до срока); квадратными скобками обозначены град или гололедные отложения с указанием их диаметра в мм.
Облачность - указаны через наклонную черту общая и нижняя облачность в баллах и высота нижней границы облаков в метрах; квадратными скобками обозначены формы облаков: Ci - перистые, Cs - перисто-слоистые, Cc - перисто-кучевые, Ac - высококучевые, As - высокослоистые, Sc - слоисто-кучевые, Ns - слоисто-дождевые, Cu - кучевые, Cb - кучево-дождевые. Подробнее классификацию облаков см. в Атласе облаков (PDF).
T - Температура воздуха - температура, измеренная на высоте 2 м над землей.
Td - Температура точки росы - температура, при понижении до которой содержащийся в воздухе водяной пар достигнет насыщения.
f - Относительная влажность воздуха - влажноcть воздуха, измеренная на высоте 2 м над землей.
Te - Эффективная температура - температура, которую ощущает одетый по сезону человек в тени. Характеристика душности погоды. При расчете учитывается влияние влажности воздуха и скорости ветра на теплоощущения человека.
Tes - Эффективная температура на солнце - температура, которую ощущает человек, с поправкой на солнечный нагрев. Характеристика знойности погоды. Зависит от высоты солнца над горизонтом, облачности и скорости ветра. Ночью, в пасмурную погоду, а также при ветре 12 м/с и более поправка равна нулю.
P - Атмосферное давление - приведенное к уровню моря атмосферное давление.
Po - Атмосферное давление - измеренное на уровне метеостанции атмосферное давление.
Tmin - Минимальная температура - минимум температуры воздуха на высоте 2 м над землей.
Tmax - Максимальная температура - максимум температуры воздуха на высоте 2 м над землей.
R - Количество осадков - Количество выпавших осадков за период времени, мм. При наведении курсора мыши на число - период времени, за который выпало указанное количество осадков.
R24 - Количество осадков - Количество выпавших осадков за 24 часа, мм.
S - Снежный покров - Высота снежного покрова, см. При наведении курсора мыши на число - состояние снежного покрова и степень покрытия местности в баллах.